Regional Weather Roundup
Issued by NWS

Home | Current Version | Previous Version | Text Only | Print | Product List | Glossary Off
Versions: 1 2 3 4 5 6 7 8 9 10 11 12 13 14 15 16 17 18 19 20 21 22 23 24 25 26 27 28 29 30 31 32 33 34 35 36 37 38 39 40 41 42 43 44 45 46 47 48 49 50

603
ASUS45 KABQ 212101
RWRNM
NEW MEXICO REGIONAL WEATHER ROUNDUP
NATIONAL WEATHER SERVICE ALBUQUERQUE NM
200 PM MST SAT JAN 21 2017

NOTE: "FAIR" MEANS FEW OR NO CLOUDS BELOW 12,000 FEET AGL WITH NO
       SIGNIFICANT WEATHER OR OBSTRUCTIONS TO VISION.

      THIS PRODUCT IS RELEASED AS TWO VERSIONS.  ONE VERSION NEAR
      THE TOP OF THE HOUR CONTAINING PRELIMINARY DATA FROM ALBUQUERQUE
      AND OTHER STATIONS.  A FINAL VERSION WITH ADDITIONAL DATA IS
      ISSUED ABOUT 10 MINUTES AFTER THE HOUR.

NMZ501-503-504-510>518-212200-
NORTHWEST PLATEAU/NORTHCENTRAL MOUNTAINS

CITY           SKY/WX    TMP DP  RH WIND       PRES   REMARKS
FARMINGTON     FLURRIES  37  27  67 W20G26    29.49R WCI  27
LOS ALAMOS     CLOUDY    33  23  67 W20G32    29.44R WCI  21
SANTA FE       PTSUNNY   38  26  62 W20G28    29.43F WCI  28
TAOS           CLOUDY    30  19  64 SW13      29.42S WCI  20
ANGEL FIRE     LGT SNOW  26  21  82 W13G22    29.38S VSB 1   WCI  15

$$
NMZ402-403-502-505>509-212200-
WESTCENTRAL MOUNTAINS/SOUTHWEST MOUNTAINS

CITY           SKY/WX    TMP DP  RH WIND       PRES   REMARKS
GALLUP         CLOUDY    31  23  72 W21G28    29.59R WCI  18
GRANTS         MIX PCPN  34  22  61 W22G33    29.57R WCI  22
SILVER CITY    LGT SNOW  33  30  87 W29G37    29.69R WCI  20

$$
NMZ407-409-411-412-212200-
SOUTHERN DESERTS

CITY           SKY/WX    TMP DP  RH WIND       PRES   REMARKS
DEMING         PTSUNNY   43  34  70 W38G46    29.69R
LAS CRUCES     DRIZZLE   43  34  69 NW23G30   29.65R
ALAMOGORDO     FAIR      50  28  43 W35G46    29.58R
T OR C         FAIR      46  23  40 W26G45    29.56F

$$
NMZ519>523-212200-
CENTRAL VALLEYS/CENTRAL HIGHLANDS

CITY           SKY/WX    TMP DP  RH WIND       PRES   REMARKS
ALBUQUERQUE    PTSUNNY   43  21  41 NW21G28   29.49R
DOUBLE EAGLE   PTSUNNY   39  25  56 W23G32    29.49R WCI  29
MORIARTY ARPT  PTSUNNY   37  22  54 W22G30    29.45S WCI  27
CLINES CORNERS FAIR      33  24  69 W30G37    29.40S WCI  19
BELEN          PTSUNNY   43  21  41 W25G31    29.52S
SOCORRO        FAIR      45  27  49 W17G25    29.54F

$$
NMZ524>526-539-540-212200-
SOUTHCENTRAL MOUNTAINS

CITY           SKY/WX    TMP DP  RH WIND       PRES   REMARKS
RUIDOSO        NOT AVBL

$$
NMZ527>531-212200-
NORTHEAST HIGHLANDS/NORTHEAST PLAINS

CITY           SKY/WX    TMP DP  RH WIND       PRES   REMARKS
LAS VEGAS      FAIR      40  20  44 W21G30    29.32S WCI  30
RATON          PTSUNNY   39  28  64 SE5       29.28S
CLAYTON        CLOUDY    47  36  65 W8        29.27S

$$
NMZ532>537-212200-
EASTCENTRAL PLAINS

CITY           SKY/WX    TMP DP  RH WIND       PRES   REMARKS
TUCUMCARI      FAIR      55  25  31 W35G45    29.27F
CANNON AFB     FAIR      52  24  33 W24G41    29.35S
CLOVIS AIRPORT FAIR      52  25  35 W26G36    29.34F

$$
NMZ028-029-538-212200-
SOUTHEAST PLAINS

CITY           SKY/WX    TMP DP  RH WIND       PRES   REMARKS
ROSWELL        PTSUNNY   50  30  46 W23G37    29.45R
ARTESIA        PTSUNNY   55  34  44 NW32G41   29.48R
CARLSBAD       FAIR      55  30  38 W33G49    29.48F
HOBBS          MOSUNNY   55  27  33 SW37G45   29.46S


$$




USA.gov is the U.S. government's official web portal to all federal, state and local government web resources and services.